Regional Weather Roundup
Issued by NWS

Home | Current Version | Previous Version | Graphics & Text | Print | Product List | Glossary On
Versions: 1 2 3 4 5 6 7 8 9 10 11 12 13 14 15 16 17 18 19 20 21 22 23 24 25 26 27 28 29 30 31 32 33 34 35 36 37 38 39 40 41 42 43 44 45 46 47 48 49 50
000
ASUS44 KMEG 012200
RWRTN
TENNESSEE HOURLY STATE WEATHER ROUNDUP
NATIONAL WEATHER SERVICE MEMPHIS TN
500 PM CDT WED APR 01 2015

TNZ002-004-019-021-049-052-054-088>092-012300-
WEST TENNESSEE

CITY           SKY/WX    TMP DP  RH WIND       PRES   REMARKS
MEMPHIS INTL   CLOUDY    77  62  59 SW15G21   29.94R
NWS MEMPHIS      N/A     72 N/A N/A MISG        N/A
JACKSON        CLOUDY    76  57  51 S8        29.96F
DYERSBURG      CLOUDY    75  48  38 S12       29.96F
UNION CITY     SUNNY     75  46  35 SE7       29.94F
PARIS          SUNNY     75  37  25 E5        29.98F
LEXINGTON      MOSUNNY   77  45  31 S3        29.97F
SAVANNAH       SUNNY     77  55  47 SE3       29.98F
$$

TNZ008-025-027-028-033-062-065-066-012300-
NORTH MIDDLE TENNESSEE

CITY           SKY/WX    TMP DP  RH WIND       PRES   REMARKS
NASHVILLE      PTSUNNY   75  28  17 SE5       30.02F
CLARKSVILLE    SUNNY     74  37  26 E10       30.01F
COOKEVILLE     SUNNY     75  27  16 CALM      30.04S
CROSSVILLE     SUNNY     72  19  13 CALM      30.07F
$$

TNZ061-075-076-078-094-096-097-012300-
SOUTH MIDDLE TENNESSEE

CITY           SKY/WX    TMP DP  RH WIND       PRES   REMARKS
FAYETTEVILLE   SUNNY     73  39  29 CALM      30.02F
TULLAHOMA      SUNNY     75  27  16 CALM      30.04S
WINCHESTER     SUNNY     75  34  22 CALM      30.03S
COLUMBIA       SUNNY     75  45  33 E8        30.00F
SHELBYVILLE    SUNNY     79  37  22 W3        30.03F
$$

TNZ017-018-042-046-047-012300-
NORTHEAST TENNESSEE

CITY           SKY/WX    TMP DP  RH WIND       PRES   REMARKS
TRI CITIES     MOSUNNY   68  15  13 S5        30.09S
ELIZABETHTON   CLEAR     66  18  15 CALM      30.09S
$$

TNZ012-013-036-069-073-074-012300-
CENTRAL EAST TENNESSEE

CITY           SKY/WX    TMP DP  RH WIND       PRES   REMARKS
KNOXVILLE      MOSUNNY   71  27  19 N10       30.05F
OAK RIDGE      SUNNY     73  20  13 E7        30.07S
GATLINBURG     CLEAR     70  18  13 NE6       30.06F
$$

TNZ083-085-099-012300-
SOUTHEAST TENNESSEE

CITY           SKY/WX    TMP DP  RH WIND       PRES   REMARKS
CHATTANOOGA    MOSUNNY   77  33  20 N6        30.03F
$$

SKY/WX REPORTED AS FAIR MEANS FEW OR NO CLOUDS BELOW
12 THOUSAND FEET.




USA.gov is the U.S. government's official web portal to all federal, state and local government web resources and services.